Date,TemperatureHighF,TemperatureAvgF,TemperatureLowF,DewpointHighF,DewpointAvgF,DewpointLowF,HumidityHigh,HumidityAvg,HumidityLow,PressureMaxIn,PressureMinIn,WindSpeedMaxMPH,WindSpeedAvgMPH,GustSpeedMaxMPH,PrecipitationSumIn
2013-11-1,45,41,38,42,38,36,94,92,85,30.12,29.79,2,0,2,0.03
2013-11-2,42,38,33,37,34,32,94,88,71,30.10,29.90,4,2,4,0.00
2013-11-3,50,46,43,37,35,34,71,66,60,29.91,29.69,5,3,5,0.00
2013-11-4,43,38,29,35,32,26,88,78,68,29.69,29.49,7,3,7,0.00
2013-11-5,41,32,22,35,28,19,91,86,70,30.14,29.57,0,0,0,0.00
2013-11-6,53,24,14,34,18,12,91,81,40,30.26,30.08,0,0,0,0.00
2013-11-7,32,25,20,23,20,16,87,79,64,30.08,29.96,0,0,0,0.00
2013-11-8,51,24,14,32,6,-58,89,68,1,30.36,30.05,0,0,0,0.00
2013-11-9,32,32,28,27,-48,-58,92,12,1,30.38,30.24,1,0,1,0.00
2013-11-10,40,38,33,39,36,31,95,95,94,30.06,29.90,5,1,5,0.63
2013-11-11,34,26,23,31,24,20,95,93,89,30.23,30.10,5,0,5,0.00
2013-11-12,32,5,3,3,-1,-58,88,84,1,30.29,30.24,0,0,0,0.00
2013-11-14,33,30,28,32,29,26,95,95,94,30.20,30.08,3,1,3,0.00
2013-11-15,32,23,15,27,19,-58,95,90,1,30.23,30.11,2,0,2,0.00
2013-11-16,32,15,4,24,11,2,91,86,71,30.39,30.17,6,1,6,0.00
2013-11-17,26,6,-4,17,2,-8,86,81,67,30.46,30.38,5,1,5,0.00
2013-11-18,16,-3,-9,8,-7,-13,85,82,69,30.42,30.34,2,0,2,0.00
2013-11-19,9,-4,-13,5,-8,-17,88,82,73,30.35,30.18,1,0,1,0.00
2013-11-20,9,3,-3,6,0,-7,87,84,80,30.30,30.16,6,3,6,0.00
2013-11-21,20,10,-1,18,6,-4,90,83,73,30.16,29.40,10,6,11,0.00
2013-11-22,26,21,13,23,18,9,91,87,73,29.69,29.35,7,2,7,0.00
2013-11-23,32,22,11,28,19,8,94,90,83,30.14,29.69,5,1,5,0.00
2013-11-24,32,27,22,29,26,20,94,93,91,30.23,30.14,1,0,1,0.00
2013-11-25,28,26,25,26,24,23,93,92,91,30.05,29.92,2,0,2,0.00